Time,TemperatureF,DewpointF,PressureIn,WindDirection,WindDirectionDegrees,WindSpeedMPH,WindSpeedGustMPH,Humidity,HourlyPrecipIn,Conditions,Clouds,dailyrainin,SolarRadiationWatts/m^2,SoftwareType,DateUTC
2013-03-29 00:00:00,43.3,36.3,30.27,South,171,0.0,0.0,76,0.00,,,0.00,0.0,meteohub,2013-03-29 04:00:00,
2013-03-29 00:01:00,43.3,36.0,30.27,South,171,0.0,0.0,75,0.00,,,0.00,0.0,meteohub,2013-03-29 04:01:00,
2013-03-29 00:05:00,43.2,36.1,30.27,South,171,0.0,0.0,76,0.00,,,0.00,0.0,meteohub,2013-03-29 04:05:00,
2013-03-29 00:11:00,43.2,36.1,30.27,South,171,0.0,0.0,76,0.00,,,0.00,0.0,meteohub,2013-03-29 04:11:00,
2013-03-29 00:16:00,43.2,36.1,30.27,South,171,0.0,0.0,76,0.00,,,0.00,0.0,meteohub,2013-03-29 04:16:00,
2013-03-29 00:21:00,43.2,36.5,30.27,South,171,0.0,0.0,77,0.00,,,0.00,0.0,meteohub,2013-03-29 04:21:00,
2013-03-29 00:26:00,43.3,36.7,30.27,South,171,0.0,0.0,77,0.00,,,0.00,0.0,meteohub,2013-03-29 04:26:00,
2013-03-29 00:31:00,43.2,36.5,30.27,South,171,0.0,0.0,77,0.00,,,0.00,0.0,meteohub,2013-03-29 04:31:00,
2013-03-29 00:36:00,43.2,36.5,30.27,South,171,0.0,0.0,77,0.00,,,0.00,0.0,meteohub,2013-03-29 04:36:00,
2013-03-29 00:41:00,43.0,36.7,30.27,South,171,0.0,0.0,78,0.00,,,0.00,0.0,meteohub,2013-03-29 04:41:00,
2013-03-29 00:46:00,42.8,36.5,30.27,South,171,0.0,0.0,78,0.00,,,0.00,0.0,meteohub,2013-03-29 04:46:00,
2013-03-29 00:51:00,42.8,36.5,30.27,South,171,0.0,0.0,78,0.00,,,0.00,0.0,meteohub,2013-03-29 04:51:00,
2013-03-29 00:56:00,42.6,36.3,30.27,South,171,0.0,0.0,78,0.00,,,0.00,0.0,meteohub,2013-03-29 04:56:00,
2013-03-29 01:01:00,42.4,38.0,30.25,South,171,0.0,-999.0,83,-99.99,,,0.00,0,weatherlink.com 1.10,2013-03-29 05:01:00,
2013-03-29 01:06:00,42.3,36.0,30.27,South,171,0.0,0.0,78,0.00,,,0.00,0.0,meteohub,2013-03-29 05:06:00,
2013-03-29 01:11:00,42.3,36.1,30.27,South,171,0.0,0.0,79,0.00,,,0.00,0.0,meteohub,2013-03-29 05:11:00,
2013-03-29 01:16:00,42.3,36.1,30.27,South,171,0.0,0.0,79,0.00,,,0.00,0.0,meteohub,2013-03-29 05:16:00,
2013-03-29 01:21:00,42.3,36.1,30.27,South,171,0.0,0.0,79,0.00,,,0.00,0.0,meteohub,2013-03-29 05:21:00,
2013-03-29 01:26:00,42.1,36.0,30.26,South,171,0.0,0.0,79,0.00,,,0.00,0.0,meteohub,2013-03-29 05:26:00,
2013-03-29 01:31:00,42.3,36.1,30.27,South,171,0.0,0.0,79,0.00,,,0.00,0.0,meteohub,2013-03-29 05:31:00,
2013-03-29 01:37:00,42.3,36.5,30.26,South,171,0.0,0.0,80,0.00,,,0.00,0.0,meteohub,2013-03-29 05:37:00,
2013-03-29 01:42:00,42.1,36.3,30.26,South,171,0.0,0.0,80,0.00,,,0.00,0.0,meteohub,2013-03-29 05:42:00,
2013-03-29 01:47:00,42.1,36.3,30.26,South,171,0.0,0.0,80,0.00,,,0.00,0.0,meteohub,2013-03-29 05:47:00,
2013-03-29 01:52:00,41.9,36.1,30.26,South,171,0.0,0.0,80,0.00,,,0.00,0.0,meteohub,2013-03-29 05:52:00,
2013-03-29 01:57:00,41.7,36.0,30.27,South,171,0.0,0.0,80,0.00,,,0.00,0.0,meteohub,2013-03-29 05:57:00,
2013-03-29 02:02:00,41.5,36.1,30.26,South,171,0.0,0.0,81,0.00,,,0.00,0.0,meteohub,2013-03-29 06:02:00,
2013-03-29 02:07:00,41.4,36.0,30.27,South,171,0.0,0.0,81,0.00,,,0.00,0.0,meteohub,2013-03-29 06:07:00,
2013-03-29 02:12:00,41.4,36.0,30.27,South,171,0.0,0.0,81,0.00,,,0.00,0.0,meteohub,2013-03-29 06:12:00,
2013-03-29 02:17:00,41.2,35.8,30.26,South,171,0.0,0.0,81,0.00,,,0.00,0.0,meteohub,2013-03-29 06:17:00,
2013-03-29 02:22:00,41.4,36.0,30.26,South,171,0.0,0.0,81,0.00,,,0.00,0.0,meteohub,2013-03-29 06:22:00,
2013-03-29 02:27:00,41.4,36.0,30.26,South,171,0.0,0.0,81,0.00,,,0.00,0.0,meteohub,2013-03-29 06:27:00,
2013-03-29 02:32:00,41.4,36.0,30.27,South,171,0.0,0.0,81,0.00,,,0.00,0.0,meteohub,2013-03-29 06:32:00,
2013-03-29 02:37:00,41.4,36.3,30.26,South,171,0.0,0.0,82,0.00,,,0.00,0.0,meteohub,2013-03-29 06:37:00,
2013-03-29 02:42:00,41.4,36.3,30.27,South,171,0.0,0.0,82,0.00,,,0.00,0.0,meteohub,2013-03-29 06:42:00,
2013-03-29 02:47:00,41.4,36.3,30.26,South,171,0.0,0.0,82,0.00,,,0.00,0.0,meteohub,2013-03-29 06:47:00,
2013-03-29 02:52:00,41.4,36.3,30.26,South,171,0.0,0.0,82,0.00,,,0.00,0.0,meteohub,2013-03-29 06:52:00,
2013-03-29 02:57:00,41.2,36.1,30.27,South,171,0.0,0.0,82,0.00,,,0.00,0.0,meteohub,2013-03-29 06:57:00,
2013-03-29 03:02:00,41.2,36.1,30.26,South,171,0.0,0.0,82,0.00,,,0.00,0.0,meteohub,2013-03-29 07:02:00,
2013-03-29 03:07:00,41.2,36.1,30.26,South,171,0.0,0.0,82,0.00,,,0.00,0.0,meteohub,2013-03-29 07:07:00,
2013-03-29 03:12:00,40.8,36.1,30.26,South,171,0.0,0.0,83,0.00,,,0.00,0.0,meteohub,2013-03-29 07:12:00,
2013-03-29 03:17:00,40.8,36.1,30.26,South,171,0.0,0.0,83,0.00,,,0.00,0.0,meteohub,2013-03-29 07:17:00,
2013-03-29 03:22:00,40.6,36.0,30.26,South,171,0.0,0.0,83,0.00,,,0.00,0.0,meteohub,2013-03-29 07:22:00,
2013-03-29 03:27:00,40.6,36.0,30.26,South,171,0.0,0.0,83,0.00,,,0.00,0.0,meteohub,2013-03-29 07:27:00,
2013-03-29 03:32:00,40.6,36.0,30.26,South,171,0.0,0.0,83,0.00,,,0.00,0.0,meteohub,2013-03-29 07:32:00,
2013-03-29 03:37:00,40.6,36.0,30.26,South,171,0.0,0.0,83,0.00,,,0.00,0.0,meteohub,2013-03-29 07:37:00,
2013-03-29 03:42:00,40.6,36.0,30.26,South,171,0.0,0.0,83,0.00,,,0.00,0.0,meteohub,2013-03-29 07:42:00,
2013-03-29 03:47:00,40.6,36.1,30.26,South,171,0.0,0.0,84,0.00,,,0.00,0.0,meteohub,2013-03-29 07:47:00,
2013-03-29 03:52:00,40.6,36.1,30.26,South,171,0.0,0.0,84,0.00,,,0.00,0.0,meteohub,2013-03-29 07:52:00,
2013-03-29 03:58:00,40.6,36.1,30.26,South,171,0.0,1.0,84,0.00,,,0.00,0.0,meteohub,2013-03-29 07:58:00,
2013-03-29 04:02:00,40.6,36.1,30.26,South,171,0.0,1.0,84,0.00,,,0.00,0.0,meteohub,2013-03-29 08:02:00,
2013-03-29 04:07:00,40.8,36.3,30.26,South,171,0.0,1.0,84,0.00,,,0.00,0.0,meteohub,2013-03-29 08:07:00,
2013-03-29 04:13:00,40.8,36.3,30.26,South,171,0.0,1.0,84,0.00,,,0.00,0.0,meteohub,2013-03-29 08:13:00,
2013-03-29 04:18:00,40.8,36.3,30.25,South,171,0.0,1.0,84,0.00,,,0.00,0.0,meteohub,2013-03-29 08:18:00,
2013-03-29 04:23:00,41.2,36.7,30.26,South,171,0.0,1.0,84,0.00,,,0.00,0.0,meteohub,2013-03-29 08:23:00,
2013-03-29 04:28:00,41.2,36.7,30.26,South,171,0.0,0.0,84,0.00,,,0.00,0.0,meteohub,2013-03-29 08:28:00,
2013-03-29 04:33:00,41.0,36.5,30.26,South,171,0.0,0.0,84,0.00,,,0.00,0.0,meteohub,2013-03-29 08:33:00,
2013-03-29 04:38:00,41.0,36.5,30.26,South,171,0.0,0.0,84,0.00,,,0.00,0.0,meteohub,2013-03-29 08:38:00,
2013-03-29 04:43:00,40.8,36.3,30.26,South,171,0.0,0.0,84,0.00,,,0.00,0.0,meteohub,2013-03-29 08:43:00,
2013-03-29 04:48:00,40.6,36.1,30.26,South,171,0.0,0.0,84,0.00,,,0.00,0.0,meteohub,2013-03-29 08:48:00,
2013-03-29 04:53:00,40.6,36.1,30.26,South,171,0.0,0.0,84,0.00,,,0.00,0.0,meteohub,2013-03-29 08:53:00,
2013-03-29 04:58:00,40.6,36.5,30.26,South,171,0.0,0.0,85,0.00,,,0.00,0.0,meteohub,2013-03-29 08:58:00,
2013-03-29 05:03:00,40.5,36.3,30.26,South,171,0.0,0.0,85,0.00,,,0.00,0.0,meteohub,2013-03-29 09:03:00,
2013-03-29 05:08:00,40.3,36.1,30.26,South,171,0.0,0.0,85,0.00,,,0.00,0.0,meteohub,2013-03-29 09:08:00,
2013-03-29 05:13:00,39.9,35.8,30.26,South,171,0.0,0.0,85,0.00,,,0.00,0.0,meteohub,2013-03-29 09:13:00,
2013-03-29 05:18:00,39.9,35.8,30.26,South,171,0.0,0.0,85,0.00,,,0.00,0.0,meteohub,2013-03-29 09:18:00,
2013-03-29 05:23:00,39.7,35.6,30.26,South,171,0.0,0.0,85,0.00,,,0.00,0.0,meteohub,2013-03-29 09:23:00,
2013-03-29 05:28:00,39.7,35.6,30.26,South,171,0.0,0.0,85,0.00,,,0.00,0.0,meteohub,2013-03-29 09:28:00,
2013-03-29 05:33:00,39.6,35.4,30.26,South,171,0.0,0.0,85,0.00,,,0.00,0.0,meteohub,2013-03-29 09:33:00,
2013-03-29 05:38:00,39.6,35.4,30.26,South,171,0.0,0.0,85,0.00,,,0.00,0.0,meteohub,2013-03-29 09:38:00,
2013-03-29 05:43:00,39.4,35.2,30.27,South,171,0.0,0.0,85,0.00,,,0.00,0.0,meteohub,2013-03-29 09:43:00,
2013-03-29 05:48:00,39.2,35.1,30.27,South,171,0.0,0.0,85,0.00,,,0.00,0.0,meteohub,2013-03-29 09:48:00,
2013-03-29 05:53:00,39.0,34.9,30.27,South,171,0.0,0.0,85,0.00,,,0.00,0.0,meteohub,2013-03-29 09:53:00,
2013-03-29 05:58:00,39.0,34.9,30.27,South,171,0.0,0.0,85,0.00,,,0.00,0.0,meteohub,2013-03-29 09:58:00,
2013-03-29 06:03:00,38.8,34.7,30.27,South,171,0.0,0.0,85,0.00,,,0.00,0.0,meteohub,2013-03-29 10:03:00,
2013-03-29 06:08:00,39.0,34.9,30.27,South,171,0.0,0.0,85,0.00,,,0.00,0.0,meteohub,2013-03-29 10:08:00,
2013-03-29 06:13:00,39.0,34.9,30.27,South,171,0.0,0.0,85,0.00,,,0.00,0.0,meteohub,2013-03-29 10:13:00,
2013-03-29 06:18:00,38.8,34.7,30.27,South,171,0.0,0.0,85,0.00,,,0.00,0.0,meteohub,2013-03-29 10:18:00,
2013-03-29 06:23:00,38.8,34.7,30.27,South,171,0.0,0.0,85,0.00,,,0.00,0.0,meteohub,2013-03-29 10:23:00,
2013-03-29 06:28:00,38.7,34.5,30.27,South,171,0.0,0.0,85,0.00,,,0.00,0.0,meteohub,2013-03-29 10:28:00,
2013-03-29 06:33:00,38.5,34.3,30.27,South,171,0.0,0.0,85,0.00,,,0.00,0.0,meteohub,2013-03-29 10:33:00,
2013-03-29 06:38:00,38.5,34.7,30.27,South,171,0.0,0.0,86,0.00,,,0.00,0.0,meteohub,2013-03-29 10:38:00,
2013-03-29 06:43:00,38.3,34.5,30.28,South,171,0.0,0.0,86,0.00,,,0.00,0.0,meteohub,2013-03-29 10:43:00,
2013-03-29 06:48:00,38.1,34.3,30.28,South,171,0.0,0.0,86,0.00,,,0.00,0.0,meteohub,2013-03-29 10:48:00,
2013-03-29 06:53:00,38.1,34.3,30.28,South,171,0.0,0.0,86,0.00,,,0.00,0.0,meteohub,2013-03-29 10:53:00,
2013-03-29 06:58:00,37.9,34.2,30.28,South,171,0.0,0.0,86,0.00,,,0.00,0.0,meteohub,2013-03-29 10:58:00,
2013-03-29 07:03:00,37.9,34.2,30.28,South,171,0.0,0.0,86,0.00,,,0.00,0.0,meteohub,2013-03-29 11:03:00,
2013-03-29 07:08:00,37.9,34.2,30.28,South,171,0.0,0.0,86,0.00,,,0.00,0.0,meteohub,2013-03-29 11:08:00,
2013-03-29 07:13:00,37.9,34.2,30.29,South,171,0.0,0.0,86,0.00,,,0.00,0.0,meteohub,2013-03-29 11:13:00,
2013-03-29 07:18:00,38.1,34.3,30.29,South,171,0.0,0.0,86,0.00,,,0.00,0.0,meteohub,2013-03-29 11:18:00,
2013-03-29 07:23:00,38.3,34.5,30.29,South,171,0.0,0.0,86,0.00,,,0.00,7.0,meteohub,2013-03-29 11:23:00,
2013-03-29 07:28:00,38.3,34.5,30.29,South,171,0.0,0.0,86,0.00,,,0.00,12.0,meteohub,2013-03-29 11:28:00,
2013-03-29 07:33:00,38.3,34.5,30.29,South,171,0.0,0.0,86,0.00,,,0.00,16.0,meteohub,2013-03-29 11:33:00,
2013-03-29 07:38:00,38.3,34.5,30.29,South,171,0.0,0.0,86,0.00,,,0.00,21.0,meteohub,2013-03-29 11:38:00,
2013-03-29 07:43:00,38.5,34.7,30.29,South,171,0.0,0.0,86,0.00,,,0.00,28.0,meteohub,2013-03-29 11:43:00,
2013-03-29 07:48:00,38.7,34.9,30.29,South,171,0.0,0.0,86,0.00,,,0.00,37.0,meteohub,2013-03-29 11:48:00,
2013-03-29 07:53:00,39.0,35.4,30.30,South,171,0.0,0.0,87,0.00,,,0.00,35.0,meteohub,2013-03-29 11:53:00,
2013-03-29 07:58:00,39.4,35.8,30.30,South,171,0.0,0.0,87,0.00,,,0.00,53.0,meteohub,2013-03-29 11:58:00,
2013-03-29 08:03:00,39.7,36.1,30.30,South,171,0.0,1.0,87,0.00,,,0.00,47.0,meteohub,2013-03-29 12:03:00,
2013-03-29 08:08:00,40.3,36.7,30.30,South,171,0.0,1.0,87,0.00,,,0.00,98.0,meteohub,2013-03-29 12:08:00,
2013-03-29 08:13:00,40.6,37.0,30.30,South,171,0.0,1.0,87,0.00,,,0.00,104.0,meteohub,2013-03-29 12:13:00,
2013-03-29 08:19:00,41.0,37.4,30.30,South,171,0.0,1.0,87,0.00,,,0.00,141.0,meteohub,2013-03-29 12:19:00,
2013-03-29 08:23:00,41.5,37.9,30.30,SSE,163,0.0,1.0,87,0.00,,,0.00,169.0,meteohub,2013-03-29 12:23:00,
2013-03-29 08:29:00,42.3,38.7,30.30,SSE,164,0.0,1.0,87,0.00,,,0.00,185.0,meteohub,2013-03-29 12:29:00,
2013-03-29 08:34:00,42.6,39.0,30.30,SSE,164,0.0,1.0,87,0.00,,,0.00,199.0,meteohub,2013-03-29 12:34:00,
2013-03-29 08:39:00,43.2,39.6,30.30,SW,225,0.0,1.0,87,0.00,,,0.00,214.0,meteohub,2013-03-29 12:39:00,
2013-03-29 08:44:00,43.5,39.9,30.30,West,281,0.0,2.0,87,0.00,,,0.00,232.0,meteohub,2013-03-29 12:44:00,
2013-03-29 08:49:00,44.1,40.5,30.31,WNW,287,1.0,3.0,87,0.00,,,0.00,250.0,meteohub,2013-03-29 12:49:00,
2013-03-29 08:54:00,44.8,40.8,30.31,North,351,5.0,5.0,86,0.00,,,0.00,267.0,meteohub,2013-03-29 12:54:00,
2013-03-29 08:59:00,45.3,41.4,30.31,WNW,298,0.0,6.0,86,0.00,,,0.00,288.0,meteohub,2013-03-29 12:59:00,
2013-03-29 09:04:00,45.9,41.9,30.31,NW,305,0.0,6.0,86,0.00,,,0.00,309.0,meteohub,2013-03-29 13:04:00,
2013-03-29 09:09:00,46.6,42.3,30.31,WNW,287,0.0,6.0,85,0.00,,,0.00,334.0,meteohub,2013-03-29 13:09:00,
2013-03-29 09:14:00,47.1,42.8,30.31,WNW,287,0.0,3.0,85,0.00,,,0.00,359.0,meteohub,2013-03-29 13:14:00,
2013-03-29 09:19:00,48.0,43.3,30.32,West,276,4.0,4.0,84,0.00,,,0.00,381.0,meteohub,2013-03-29 13:19:00,
2013-03-29 09:24:00,48.7,43.9,30.32,NW,315,1.0,5.0,83,0.00,,,0.00,401.0,meteohub,2013-03-29 13:24:00,
2013-03-29 09:29:00,49.5,44.2,30.32,WNW,296,2.0,5.0,82,0.00,,,0.00,420.0,meteohub,2013-03-29 13:29:00,
2013-03-29 09:34:00,50.2,45.0,30.32,West,280,3.0,5.0,82,0.00,,,0.00,439.0,meteohub,2013-03-29 13:34:00,
2013-03-29 09:39:00,50.7,45.1,30.32,WNW,292,6.0,6.0,81,0.00,,,0.00,459.0,meteohub,2013-03-29 13:39:00,
2013-03-29 09:44:00,51.3,45.0,30.32,NW,318,1.0,8.0,79,0.00,,,0.00,478.0,meteohub,2013-03-29 13:44:00,
2013-03-29 09:49:00,51.6,45.0,30.32,West,278,0.0,9.0,78,0.00,,,0.00,497.0,meteohub,2013-03-29 13:49:00,
2013-03-29 09:54:00,52.2,45.5,30.32,WNW,294,2.0,9.0,78,0.00,,,0.00,515.0,meteohub,2013-03-29 13:54:00,
2013-03-29 09:59:00,52.5,45.5,30.32,WNW,284,1.0,9.0,77,0.00,,,0.00,531.0,meteohub,2013-03-29 13:59:00,
2013-03-29 10:04:00,53.1,45.7,30.32,NW,317,0.0,6.0,76,0.00,,,0.00,548.0,meteohub,2013-03-29 14:04:00,
2013-03-29 10:09:00,53.4,45.7,30.32,NNE,26,3.0,6.0,75,0.00,,,0.00,566.0,meteohub,2013-03-29 14:09:00,
2013-03-29 10:14:00,54.0,45.9,30.32,WNW,284,2.0,5.0,74,0.00,,,0.00,582.0,meteohub,2013-03-29 14:14:00,
2013-03-29 10:19:00,54.3,46.2,30.32,North,11,1.0,6.0,74,0.00,,,0.00,599.0,meteohub,2013-03-29 14:19:00,
2013-03-29 10:24:00,55.0,46.6,30.32,WNW,296,4.0,6.0,73,0.00,,,0.00,619.0,meteohub,2013-03-29 14:24:00,
2013-03-29 10:29:00,55.4,46.9,30.32,NW,313,0.0,6.0,73,0.00,,,0.00,633.0,meteohub,2013-03-29 14:29:00,
2013-03-29 10:34:00,55.9,47.5,30.32,NNW,338,0.0,6.0,73,0.00,,,0.00,650.0,meteohub,2013-03-29 14:34:00,
2013-03-29 10:39:00,56.5,47.5,30.32,West,266,0.0,6.0,72,0.00,,,0.00,664.0,meteohub,2013-03-29 14:39:00,
2013-03-29 10:44:00,57.0,47.7,30.32,NW,317,0.0,4.0,71,0.00,,,0.00,682.0,meteohub,2013-03-29 14:44:00,
2013-03-29 10:49:00,57.2,47.5,30.32,NE,34,5.0,5.0,70,0.00,,,0.00,696.0,meteohub,2013-03-29 14:49:00,
2013-03-29 10:54:00,57.4,47.7,30.32,WNW,293,1.0,6.0,70,0.00,,,0.00,712.0,meteohub,2013-03-29 14:54:00,
2013-03-29 10:59:00,57.9,47.8,30.33,WNW,300,1.0,6.0,69,0.00,,,0.00,724.0,meteohub,2013-03-29 14:59:00,
2013-03-29 11:04:00,58.3,47.8,30.32,NE,44,5.0,6.0,68,0.00,,,0.00,744.0,meteohub,2013-03-29 15:04:00,
2013-03-29 11:09:00,58.3,47.8,30.32,NE,46,1.0,8.0,68,0.00,,,0.00,756.0,meteohub,2013-03-29 15:09:00,
2013-03-29 11:14:00,58.5,47.5,30.32,ENE,61,4.0,8.0,67,0.00,,,0.00,768.0,meteohub,2013-03-29 15:14:00,
2013-03-29 11:19:00,58.6,47.3,30.32,NNW,338,5.0,8.0,66,0.00,,,0.00,782.0,meteohub,2013-03-29 15:19:00,
2013-03-29 11:24:00,59.0,47.7,30.32,SW,220,0.0,6.0,66,0.00,,,0.00,791.0,meteohub,2013-03-29 15:24:00,
2013-03-29 11:29:00,59.5,47.8,30.32,SW,224,0.0,7.0,65,0.00,,,0.00,805.0,meteohub,2013-03-29 15:29:00,
2013-03-29 11:34:00,60.4,48.6,30.33,WNW,295,3.0,7.0,65,0.00,,,0.00,814.0,meteohub,2013-03-29 15:34:00,
2013-03-29 11:39:00,60.4,47.8,30.32,SW,234,2.0,4.0,63,0.00,,,0.00,824.0,meteohub,2013-03-29 15:39:00,
2013-03-29 11:44:00,61.0,48.4,30.32,WNW,284,1.0,9.0,63,0.00,,,0.00,837.0,meteohub,2013-03-29 15:44:00,
2013-03-29 11:49:00,61.3,48.2,30.32,West,261,0.0,9.0,62,0.00,,,0.00,846.0,meteohub,2013-03-29 15:49:00,
2013-03-29 11:54:00,61.9,48.7,30.32,WNW,297,0.0,9.0,62,0.00,,,0.00,861.0,meteohub,2013-03-29 15:54:00,
2013-03-29 11:59:00,62.1,48.4,30.32,WNW,290,1.0,7.0,61,0.00,,,0.00,867.0,meteohub,2013-03-29 15:59:00,
2013-03-29 12:04:00,62.2,48.2,30.32,West,265,2.0,7.0,60,0.00,,,0.00,877.0,meteohub,2013-03-29 16:04:00,
2013-03-29 12:09:00,62.4,48.4,30.31,WNW,283,2.0,7.0,60,0.00,,,0.00,881.0,meteohub,2013-03-29 16:09:00,
2013-03-29 12:14:00,62.4,47.8,30.31,NW,306,0.0,7.0,59,0.00,,,0.00,891.0,meteohub,2013-03-29 16:14:00,
2013-03-29 12:19:00,62.4,47.8,30.31,West,275,2.0,7.0,59,0.00,,,0.00,896.0,meteohub,2013-03-29 16:19:00,
2013-03-29 12:24:00,62.8,47.8,30.31,West,261,3.0,8.0,58,0.00,,,0.00,905.0,meteohub,2013-03-29 16:24:00,
2013-03-29 12:29:00,63.0,47.5,30.31,North,5,5.0,8.0,57,0.00,,,0.00,916.0,meteohub,2013-03-29 16:29:00,
2013-03-29 12:34:00,62.8,46.9,30.30,ENE,74,0.0,8.0,56,0.00,,,0.00,919.0,meteohub,2013-03-29 16:34:00,
2013-03-29 12:39:00,63.0,46.6,30.30,NE,49,3.0,7.0,55,0.00,,,0.00,925.0,meteohub,2013-03-29 16:39:00,
2013-03-29 12:44:00,63.1,46.8,30.30,NE,34,8.0,8.0,55,0.00,,,0.00,923.0,meteohub,2013-03-29 16:44:00,
2013-03-29 12:49:00,63.3,46.9,30.30,West,276,0.0,10.0,55,0.00,,,0.00,932.0,meteohub,2013-03-29 16:49:00,
2013-03-29 12:55:00,63.7,46.2,30.30,NE,45,7.0,10.0,53,0.00,,,0.00,935.0,meteohub,2013-03-29 16:55:00,
2013-03-29 13:00:00,63.3,45.9,30.30,North,349,1.0,10.0,53,0.00,,,0.00,939.0,meteohub,2013-03-29 17:00:00,
2013-03-29 13:05:00,63.7,46.2,30.29,NE,44,0.0,9.0,53,0.00,,,0.00,944.0,meteohub,2013-03-29 17:05:00,
2013-03-29 13:10:00,64.2,46.2,30.29,NE,36,0.0,9.0,52,0.00,,,0.00,947.0,meteohub,2013-03-29 17:10:00,
2013-03-29 13:15:00,64.8,46.2,30.29,NE,45,3.0,7.0,51,0.00,,,0.00,949.0,meteohub,2013-03-29 17:15:00,
2013-03-29 13:20:00,64.8,46.2,30.29,NNE,24,0.0,5.0,51,0.00,,,0.00,946.0,meteohub,2013-03-29 17:20:00,
2013-03-29 13:25:00,64.6,46.0,30.29,NE,40,2.0,7.0,51,0.00,,,0.00,947.0,meteohub,2013-03-29 17:25:00,
2013-03-29 13:30:00,64.4,45.9,30.28,NNW,329,2.0,8.0,51,0.00,,,0.00,944.0,meteohub,2013-03-29 17:30:00,
2013-03-29 13:35:00,64.6,45.5,30.28,ENE,75,0.0,8.0,50,0.00,,,0.00,946.0,meteohub,2013-03-29 17:35:00,
2013-03-29 13:40:00,64.9,45.9,30.28,WNW,282,4.0,8.0,50,0.00,,,0.00,946.0,meteohub,2013-03-29 17:40:00,
2013-03-29 13:45:00,65.1,45.5,30.28,ENE,69,1.0,8.0,49,0.00,,,0.00,946.0,meteohub,2013-03-29 17:45:00,
2013-03-29 13:50:00,65.1,45.0,30.27,NW,325,4.0,8.0,48,0.00,,,0.00,942.0,meteohub,2013-03-29 17:50:00,
2013-03-29 13:55:00,65.3,45.1,30.27,West,270,0.0,8.0,48,0.00,,,0.00,939.0,meteohub,2013-03-29 17:55:00,
2013-03-29 14:00:00,65.7,45.0,30.27,ENE,74,7.0,8.0,47,0.00,,,0.00,944.0,meteohub,2013-03-29 18:00:00,
2013-03-29 14:05:00,65.5,44.2,30.27,NE,49,6.0,9.0,46,0.00,,,0.00,939.0,meteohub,2013-03-29 18:05:00,
2013-03-29 14:10:00,65.5,44.2,30.27,NE,45,2.0,9.0,46,0.00,,,0.00,933.0,meteohub,2013-03-29 18:10:00,
2013-03-29 14:15:00,65.5,44.2,30.27,NE,53,6.0,9.0,46,0.00,,,0.00,919.0,meteohub,2013-03-29 18:15:00,
2013-03-29 14:20:00,65.3,43.3,30.26,ENE,60,4.0,9.0,45,0.00,,,0.00,921.0,meteohub,2013-03-29 18:20:00,
2013-03-29 14:25:00,65.5,43.5,30.26,WNW,285,2.0,12.0,45,0.00,,,0.00,912.0,meteohub,2013-03-29 18:25:00,
2013-03-29 14:30:00,65.8,43.9,30.25,North,5,4.0,12.0,45,0.00,,,0.00,886.0,meteohub,2013-03-29 18:30:00,
2013-03-29 14:35:00,66.4,46.0,30.25,NNE,27,7.0,12.0,48,0.00,,,0.00,868.0,meteohub,2013-03-29 18:35:00,
2013-03-29 14:40:00,66.0,46.4,30.25,NE,41,4.0,8.0,49,0.00,,,0.00,877.0,meteohub,2013-03-29 18:40:00,
2013-03-29 14:45:00,65.8,46.8,30.25,NE,56,6.0,8.0,50,0.00,,,0.00,877.0,meteohub,2013-03-29 18:45:00,
2013-03-29 14:50:00,65.5,46.9,30.25,NE,44,1.0,9.0,51,0.00,,,0.00,865.0,meteohub,2013-03-29 18:50:00,
2013-03-29 14:55:00,65.7,47.1,30.24,South,173,3.0,10.0,51,0.00,,,0.00,858.0,meteohub,2013-03-29 18:55:00,
2013-03-29 15:00:00,65.5,47.5,30.24,ENE,60,3.0,10.0,52,0.00,,,0.00,847.0,meteohub,2013-03-29 19:00:00,
2013-03-29 15:05:00,65.3,47.7,30.24,NNE,32,3.0,11.0,53,0.00,,,0.00,833.0,meteohub,2013-03-29 19:05:00,
2013-03-29 15:10:00,64.9,47.8,30.24,NNE,17,6.0,11.0,54,0.00,,,0.00,821.0,meteohub,2013-03-29 19:10:00,
2013-03-29 15:15:00,64.6,47.5,30.23,NE,38,6.0,12.0,54,0.00,,,0.00,810.0,meteohub,2013-03-29 19:15:00,
2013-03-29 15:20:00,64.2,47.3,30.23,NE,38,1.0,12.0,54,0.00,,,0.00,800.0,meteohub,2013-03-29 19:20:00,
2013-03-29 15:25:00,64.6,48.0,30.23,NNE,31,2.0,11.0,55,0.00,,,0.00,786.0,meteohub,2013-03-29 19:25:00,
2013-03-29 15:30:00,64.8,48.7,30.23,NNE,29,7.0,10.0,56,0.00,,,0.00,780.0,meteohub,2013-03-29 19:30:00,
2013-03-29 15:35:00,64.4,48.9,30.23,NE,40,5.0,12.0,57,0.00,,,0.00,766.0,meteohub,2013-03-29 19:35:00,
2013-03-29 15:40:00,64.0,48.9,30.23,NE,52,8.0,12.0,58,0.00,,,0.00,759.0,meteohub,2013-03-29 19:40:00,
2013-03-29 15:45:00,63.9,49.3,30.23,East,82,5.0,12.0,59,0.00,,,0.00,751.0,meteohub,2013-03-29 19:45:00,
2013-03-29 15:50:00,63.5,48.9,30.23,ENE,67,10.0,12.0,59,0.00,,,0.00,740.0,meteohub,2013-03-29 19:50:00,
2013-03-29 15:55:00,63.3,49.3,30.23,East,96,7.0,12.0,60,0.00,,,0.00,729.0,meteohub,2013-03-29 19:55:00,
2013-03-29 16:00:00,63.1,49.1,30.23,ENE,68,3.0,13.0,60,0.00,,,0.00,715.0,meteohub,2013-03-29 20:00:00,
2013-03-29 16:05:00,63.0,48.9,30.23,ENE,60,5.0,13.0,60,0.00,,,0.00,707.0,meteohub,2013-03-29 20:05:00,
2013-03-29 16:10:00,62.8,49.1,30.23,ENE,59,11.0,13.0,61,0.00,,,0.00,694.0,meteohub,2013-03-29 20:10:00,
2013-03-29 16:15:00,62.2,48.6,30.22,NE,40,2.0,14.0,61,0.00,,,0.00,680.0,meteohub,2013-03-29 20:15:00,
2013-03-29 16:21:00,62.4,48.7,30.22,ENE,74,2.0,14.0,61,0.00,,,0.00,663.0,meteohub,2013-03-29 20:21:00,
2013-03-29 16:26:00,62.4,48.7,30.22,ESE,114,2.0,14.0,61,0.00,,,0.00,649.0,meteohub,2013-03-29 20:26:00,
2013-03-29 16:31:00,62.8,49.1,30.22,North,0,5.0,12.0,61,0.00,,,0.00,633.0,meteohub,2013-03-29 20:31:00,
2013-03-29 16:36:00,62.8,49.1,30.22,NE,38,6.0,11.0,61,0.00,,,0.00,617.0,meteohub,2013-03-29 20:36:00,
2013-03-29 16:41:00,62.8,49.1,30.21,NNE,29,6.0,11.0,61,0.00,,,0.00,601.0,meteohub,2013-03-29 20:41:00,
2013-03-29 16:46:00,62.8,49.1,30.21,NNE,25,3.0,11.0,61,0.00,,,0.00,582.0,meteohub,2013-03-29 20:46:00,
2013-03-29 16:51:00,63.0,49.3,30.21,ENE,68,4.0,11.0,61,0.00,,,0.00,568.0,meteohub,2013-03-29 20:51:00,
2013-03-29 16:56:00,62.8,49.1,30.21,NE,48,6.0,10.0,61,0.00,,,0.00,554.0,meteohub,2013-03-29 20:56:00,
2013-03-29 17:01:00,62.4,48.4,30.21,NE,53,6.0,15.0,60,0.00,,,0.00,534.0,meteohub,2013-03-29 21:01:00,
2013-03-29 17:06:00,62.4,48.7,30.21,NE,53,3.0,15.0,61,0.00,,,0.00,522.0,meteohub,2013-03-29 21:06:00,
2013-03-29 17:11:00,62.6,48.6,30.21,NE,38,6.0,15.0,60,0.00,,,0.00,499.0,meteohub,2013-03-29 21:11:00,
2013-03-29 17:16:00,62.6,48.6,30.21,North,5,5.0,10.0,60,0.00,,,0.00,480.0,meteohub,2013-03-29 21:16:00,
2013-03-29 17:21:00,62.8,48.7,30.21,NE,49,1.0,9.0,60,0.00,,,0.00,459.0,meteohub,2013-03-29 21:21:00,
2013-03-29 17:26:00,62.6,48.6,30.21,ENE,69,5.0,9.0,60,0.00,,,0.00,441.0,meteohub,2013-03-29 21:26:00,
2013-03-29 17:31:00,62.6,48.0,30.21,ESE,115,4.0,9.0,59,0.00,,,0.00,330.0,meteohub,2013-03-29 21:31:00,
2013-03-29 17:37:00,62.6,47.7,30.21,ESE,111,2.0,9.0,58,0.00,,,0.00,262.0,meteohub,2013-03-29 21:37:00,
2013-03-29 17:42:00,62.4,47.5,30.21,NE,55,5.0,11.0,58,0.00,,,0.00,160.0,meteohub,2013-03-29 21:42:00,
2013-03-29 17:47:00,62.2,47.3,30.21,NE,44,2.0,11.0,58,0.00,,,0.00,188.0,meteohub,2013-03-29 21:47:00,
2013-03-29 17:52:00,62.2,47.7,30.21,East,84,0.0,11.0,59,0.00,,,0.00,148.0,meteohub,2013-03-29 21:52:00,
2013-03-29 17:57:00,62.1,46.6,30.21,East,81,2.0,9.0,57,0.00,,,0.00,162.0,meteohub,2013-03-29 21:57:00,
2013-03-29 18:02:00,61.9,46.9,30.20,ESE,114,1.0,9.0,58,0.00,,,0.00,213.0,meteohub,2013-03-29 22:02:00,
2013-03-29 18:07:00,61.9,46.4,30.20,ENE,65,3.0,9.0,57,0.00,,,0.00,146.0,meteohub,2013-03-29 22:07:00,
2013-03-29 18:12:00,61.9,46.0,30.20,NE,42,5.0,7.0,56,0.00,,,0.00,172.0,meteohub,2013-03-29 22:12:00,
2013-03-29 18:17:00,61.7,45.9,30.20,NE,53,4.0,7.0,56,0.00,,,0.00,163.0,meteohub,2013-03-29 22:17:00,
2013-03-29 18:22:00,61.5,45.7,30.20,East,95,2.0,8.0,56,0.00,,,0.00,186.0,meteohub,2013-03-29 22:22:00,
2013-03-29 18:27:00,61.3,45.5,30.20,NNE,33,5.0,8.0,56,0.00,,,0.00,67.0,meteohub,2013-03-29 22:27:00,
2013-03-29 18:32:00,61.3,45.5,30.20,ENE,77,1.0,8.0,56,0.00,,,0.00,54.0,meteohub,2013-03-29 22:32:00,
2013-03-29 18:37:00,61.2,45.9,30.21,East,88,0.0,5.0,57,0.00,,,0.00,70.0,meteohub,2013-03-29 22:37:00,
2013-03-29 18:42:00,61.2,45.9,30.21,ENE,77,0.0,5.0,57,0.00,,,0.00,47.0,meteohub,2013-03-29 22:42:00,
2013-03-29 18:47:00,61.0,46.0,30.21,ENE,67,1.0,5.0,58,0.00,,,0.00,74.0,meteohub,2013-03-29 22:47:00,
2013-03-29 18:52:00,60.8,45.9,30.21,SE,141,2.0,5.0,58,0.00,,,0.00,42.0,meteohub,2013-03-29 22:52:00,
2013-03-29 18:57:00,60.6,45.7,30.21,East,84,0.0,5.0,58,0.00,,,0.00,49.0,meteohub,2013-03-29 22:57:00,
2013-03-29 19:02:00,60.4,45.7,30.21,East,82,0.0,4.0,58,0.00,,,0.00,56.0,meteohub,2013-03-29 23:02:00,
2013-03-29 19:07:00,60.3,45.5,30.22,East,83,0.0,4.0,58,0.00,,,0.00,30.0,meteohub,2013-03-29 23:07:00,
2013-03-29 19:12:00,60.1,45.7,30.22,East,83,0.0,3.0,59,0.00,,,0.00,28.0,meteohub,2013-03-29 23:12:00,
2013-03-29 19:17:00,59.7,46.2,30.22,East,86,0.0,3.0,61,0.00,,,0.00,23.0,meteohub,2013-03-29 23:17:00,
2013-03-29 19:22:00,59.4,45.0,30.22,East,94,2.0,3.0,59,0.00,,,0.00,19.0,meteohub,2013-03-29 23:22:00,
2013-03-29 19:27:00,59.0,45.1,30.22,ESE,104,2.0,4.0,60,0.00,,,0.00,14.0,meteohub,2013-03-29 23:27:00,
2013-03-29 19:32:00,59.0,45.1,30.22,ESE,104,0.0,4.0,60,0.00,,,0.00,11.0,meteohub,2013-03-29 23:32:00,
2013-03-29 19:37:00,58.6,45.3,30.22,ESE,103,0.0,4.0,61,0.00,,,0.00,7.0,meteohub,2013-03-29 23:37:00,
2013-03-29 19:42:00,58.5,45.1,30.22,ESE,104,0.0,3.0,61,0.00,,,0.00,0.0,meteohub,2013-03-29 23:42:00,
2013-03-29 19:48:00,57.9,44.6,30.22,ESE,103,0.0,2.0,61,0.00,,,0.00,0.0,meteohub,2013-03-29 23:48:00,
2013-03-29 19:53:00,57.7,44.8,30.22,ESE,104,0.0,1.0,62,0.00,,,0.00,0.0,meteohub,2013-03-29 23:53:00,
2013-03-29 19:58:00,57.4,44.4,30.22,ESE,103,0.0,1.0,62,0.00,,,0.00,0.0,meteohub,2013-03-29 23:58:00,
2013-03-29 20:03:00,56.7,44.2,30.22,ESE,104,0.0,0.0,63,0.00,,,0.00,0.0,meteohub,2013-03-30 00:03:00,
2013-03-29 20:08:00,56.1,44.1,30.22,ESE,103,0.0,0.0,64,0.00,,,0.00,0.0,meteohub,2013-03-30 00:08:00,
2013-03-29 20:13:00,55.8,43.7,30.22,ESE,104,0.0,0.0,64,0.00,,,0.00,0.0,meteohub,2013-03-30 00:13:00,
2013-03-29 20:18:00,55.2,43.7,30.22,ESE,104,0.0,0.0,65,0.00,,,0.00,0.0,meteohub,2013-03-30 00:18:00,
2013-03-29 20:23:00,54.9,43.3,30.22,ESE,104,0.0,0.0,65,0.00,,,0.00,0.0,meteohub,2013-03-30 00:23:00,
2013-03-29 20:28:00,54.5,43.3,30.23,ESE,104,0.0,0.0,66,0.00,,,0.00,0.0,meteohub,2013-03-30 00:28:00,
2013-03-29 20:33:00,54.0,42.8,30.23,ESE,104,0.0,0.0,66,0.00,,,0.00,0.0,meteohub,2013-03-30 00:33:00,
2013-03-29 20:38:00,53.6,42.4,30.23,ESE,104,0.0,0.0,66,0.00,,,0.00,0.0,meteohub,2013-03-30 00:38:00,
2013-03-29 20:43:00,53.2,42.6,30.23,ESE,103,0.0,0.0,67,0.00,,,0.00,0.0,meteohub,2013-03-30 00:43:00,
2013-03-29 20:48:00,52.9,42.3,30.23,ESE,103,0.0,0.0,67,0.00,,,0.00,0.0,meteohub,2013-03-30 00:48:00,
2013-03-29 20:53:00,52.7,42.4,30.23,ESE,104,0.0,0.0,68,0.00,,,0.00,0.0,meteohub,2013-03-30 00:53:00,
2013-03-29 20:58:00,52.3,42.1,30.23,ESE,104,0.0,0.0,68,0.00,,,0.00,0.0,meteohub,2013-03-30 00:58:00,
2013-03-29 21:03:00,52.2,42.3,30.23,ESE,104,0.0,0.0,69,0.00,,,0.00,0.0,meteohub,2013-03-30 01:03:00,
2013-03-29 21:08:00,52.0,42.1,30.23,ESE,104,0.0,0.0,69,0.00,,,0.00,0.0,meteohub,2013-03-30 01:08:00,
2013-03-29 21:13:00,51.8,42.3,30.23,ESE,104,0.0,0.0,70,0.00,,,0.00,0.0,meteohub,2013-03-30 01:13:00,
2013-03-29 21:18:00,51.4,41.9,30.23,ESE,104,0.0,0.0,70,0.00,,,0.00,0.0,meteohub,2013-03-30 01:18:00,
2013-03-29 21:23:00,51.1,42.1,30.23,ESE,103,0.0,0.0,71,0.00,,,0.00,0.0,meteohub,2013-03-30 01:23:00,
2013-03-29 21:28:00,50.7,41.7,30.23,ESE,103,0.0,0.0,71,0.00,,,0.00,0.0,meteohub,2013-03-30 01:28:00,
2013-03-29 21:33:00,50.5,41.5,30.23,ESE,104,0.0,0.0,71,0.00,,,0.00,0.0,meteohub,2013-03-30 01:33:00,
2013-03-29 21:38:00,50.4,41.7,30.23,ESE,104,0.0,0.0,72,0.00,,,0.00,0.0,meteohub,2013-03-30 01:38:00,
2013-03-29 21:43:00,50.2,41.5,30.24,ESE,104,0.0,0.0,72,0.00,,,0.00,0.0,meteohub,2013-03-30 01:43:00,
2013-03-29 21:48:00,50.2,41.5,30.24,ESE,104,0.0,0.0,72,0.00,,,0.00,0.0,meteohub,2013-03-30 01:48:00,
2013-03-29 21:53:00,50.0,41.7,30.24,ESE,103,0.0,0.0,73,0.00,,,0.00,0.0,meteohub,2013-03-30 01:53:00,
2013-03-29 21:58:00,49.8,41.5,30.24,ESE,103,0.0,0.0,73,0.00,,,0.00,0.0,meteohub,2013-03-30 01:58:00,
2013-03-29 22:03:00,49.6,41.7,30.24,ESE,103,0.0,0.0,74,0.00,,,0.00,0.0,meteohub,2013-03-30 02:03:00,
2013-03-29 22:08:00,49.5,41.5,30.24,ESE,104,0.0,0.0,74,0.00,,,0.00,0.0,meteohub,2013-03-30 02:08:00,
2013-03-29 22:13:00,49.3,41.4,30.24,ESE,104,0.0,0.0,74,0.00,,,0.00,0.0,meteohub,2013-03-30 02:13:00,
2013-03-29 22:18:00,49.1,41.5,30.24,ESE,104,0.0,0.0,75,0.00,,,0.00,0.0,meteohub,2013-03-30 02:18:00,
2013-03-29 22:23:00,48.7,41.2,30.24,ESE,103,0.0,0.0,75,0.00,,,0.00,0.0,meteohub,2013-03-30 02:23:00,
2013-03-29 22:28:00,48.6,41.0,30.25,ESE,103,0.0,0.0,75,0.00,,,0.00,0.0,meteohub,2013-03-30 02:28:00,
2013-03-29 22:33:00,48.6,41.4,30.25,ESE,104,0.0,0.0,76,0.00,,,0.00,0.0,meteohub,2013-03-30 02:33:00,
2013-03-29 22:38:00,48.6,41.4,30.25,ESE,103,0.0,0.0,76,0.00,,,0.00,0.0,meteohub,2013-03-30 02:38:00,
2013-03-29 22:43:00,48.4,41.2,30.25,ESE,104,0.0,0.0,76,0.00,,,0.00,0.0,meteohub,2013-03-30 02:43:00,
2013-03-29 22:48:00,48.4,41.5,30.24,ESE,103,0.0,0.0,77,0.00,,,0.00,0.0,meteohub,2013-03-30 02:48:00,
2013-03-29 22:53:00,48.4,41.5,30.24,ESE,104,0.0,0.0,77,0.00,,,0.00,0.0,meteohub,2013-03-30 02:53:00,
2013-03-29 22:58:00,48.4,41.5,30.24,ESE,104,0.0,0.0,77,0.00,,,0.00,0.0,meteohub,2013-03-30 02:58:00,
2013-03-29 23:06:00,48.4,41.9,30.24,ESE,103,0.0,0.0,78,0.00,,,0.00,0.0,meteohub,2013-03-30 03:06:00,
2013-03-29 23:11:00,48.4,41.9,30.24,ESE,103,0.0,0.0,78,0.00,,,0.00,0.0,meteohub,2013-03-30 03:11:00,
2013-03-29 23:16:00,48.4,42.3,30.24,ESE,103,0.0,0.0,79,0.00,,,0.00,0.0,meteohub,2013-03-30 03:16:00,
2013-03-29 23:21:00,48.2,42.1,30.24,ESE,104,0.0,0.0,79,0.00,,,0.00,0.0,meteohub,2013-03-30 03:21:00,
2013-03-29 23:27:00,48.2,42.1,30.24,ESE,104,0.0,0.0,79,0.00,,,0.00,0.0,meteohub,2013-03-30 03:27:00,
2013-03-29 23:32:00,48.0,41.9,30.24,ESE,104,0.0,0.0,79,0.00,,,0.00,0.0,meteohub,2013-03-30 03:32:00,
2013-03-29 23:37:00,48.0,41.9,30.24,ESE,104,0.0,0.0,79,0.00,,,0.00,0.0,meteohub,2013-03-30 03:37:00,
2013-03-29 23:42:00,48.0,42.1,30.24,ESE,103,0.0,0.0,80,0.00,,,0.00,0.0,meteohub,2013-03-30 03:42:00,
2013-03-29 23:47:00,48.0,42.1,30.24,ESE,104,0.0,0.0,80,0.00,,,0.00,0.0,meteohub,2013-03-30 03:47:00,
2013-03-29 23:52:00,47.8,41.9,30.23,ESE,104,0.0,0.0,80,0.00,,,0.00,0.0,meteohub,2013-03-30 03:52:00,
2013-03-29 23:57:00,48.0,42.1,30.23,ESE,104,0.0,0.0,80,0.00,,,0.00,0.0,meteohub,2013-03-30 03:57:00,